www.pogodaiklimat.ru

Погода и климат >> Архив погоды >> Россия >> Марий-Эл >> Йошкар-Ола


АРХИВ ПОГОДЫ в Йошкар-Оле

Время (UTC), дата Ветер
(напр.,м/с)
 
Видим.   Явления Облачность Т
(С)
Тd
(С)
f
(%)
Тe
(С)
Тes
(С)
Комфортность P
(гПа)
Po
(гПа)
Тmin
(С)
Tmax
(С)
R
(мм)
R24
(мм)
S
(см)
00 15.08 Ю 1-1
{2}
10 км 9/8 1000 м
[Sc Ac trans]
+14.9 +13.1 89 +15 +15 тепло 1014.3 1000.1
03 15.08 ЮЗ 1-1
{3}
10 км 9/0
[Ac trans]
+15.1 +13.3 89 +16 +16 по сезону 1014.9 1000.7 +14.5
06 15.08 Ю 2-3
{3}
10 км 8/0
[Ac trans Cc]
+20.5 +14.7 69 +24 +29 комфорт 1014.9 1000.9
09 15.08 Ю 2-5
{6}
50 км 6/5 600 м
[Cu med, cong Ci fib]
+24.0 +15.0 57 +27 +32 жарко 1014.0 1000.2
12 15.08 Ю 4-7
{7}
50 км 6/0
[Ci fib]
+26.4 +15.6 51 +29 +33 жарко 1012.6 998.9
15 15.08 Ю 3-5
{7}
50 км 3/3 1000 м
[Cu med, cong Ci fib]
+26.3 +16.6 55 +30 +30 душно 1011.2 997.6 +27.0
18 15.08 Ю 4-6
{6}
10 км 8/4 600 м
[Cb calv Ac trans Cs]
+22.5 +16.4 68 +27 +27 душно 1011.6 997.7
21 15.08 В 2-3
{12}
10 км гроза без осадков {ливн. осадки} 9/6 600 м
[Cb cap Ac trans Cs]
+18.5 +17.9 96 +20 +20 тепло 1013.1 999.0
00 16.08 Ю 2-3
{5}
10 км {гроза, ливн. осадки} 8/4 1000 м
[Cb calv Ac trans]
+18.4 +17.1 92 +20 +20 тепло 1012.8 998.7
03 16.08 ЮВ 1-1
{4}
4000 м дымка 9/4 1000 м
[Sc diur, vesp Ac trans Cc]
+17.3 +16.6 96 +18 +19 тепло 1012.9 998.8 +15.6 4
06 16.08 СВ 2-4
{5}
10 км 10/8 600 м
[Cb calv Ac As]
+19.2 +17.9 92 +22 +22 комфорт 1013.1 999.1
09 16.08 СЗ 3-5
{11}
4000 м гроза, ливневой дождь 10/8 600 м
[Cb cap Ac As]
+16.4 +15.7 96 +16 +17 прохладно 1016.5 1002.4
12 16.08 Ю 2-3
{6}
10 км в посл. час ливневой дождь {гроза} 10/8 600 м
[Cb calv Ac As]
+17.1 +16.1 94 +17 +18 прохладно 1015.1 1001.0
15 16.08 З 1-2
{5}
20 км 10/8 600 м
[Cb calv Ac As]
+18.1 +16.8 92 +19 +19 по сезону 1014.7 1000.6 +19.9 15
18 16.08 СВ 1-2
{2}
4000 м дымка 10/8 600 м
[Sc Ac As]
+16.8 +16.5 98 +18 +18 тепло 1015.3 1001.2
21 16.08 СВ 3-4
{5}
4000 м дымка {ливн. осадки} 10/8 600 м
[Cb calv As op]
+16.2 +16.0 99 +16 +16 тепло 1015.7 1001.6
00 17.08 В 2-3
{4}
4000 м слаб. дождь 10/10 300 м
[Frnb Ns]
+15.9 +15.9 100 +16 +16 тепло 1015.6 1001.5
03 17.08 СВ 1-1
{3}
10 км слаб. ливневой дождь 10/9 300 м
[Cb cap As op]
+16.2 +16.0 99 +17 +17 тепло 1015.3 1001.2 +15.9 5
06 17.08 СВ 2-3
{4}
10 км {ливн. осадки, дождь} 10/8 600 м
[Cb calv Ac As]
+17.5 +17.3 99 +18 +18 по сезону 1015.8 1001.7
09 17.08 С 3-4
{5}
10 км 10/8 600 м
[Cb calv Ac As]
+19.7 +18.3 92 +23 +23 комфорт 1015.9 1001.9
12 17.08 СВ 3-6
{6}
10 км 10/8 600 м
[Cb calv Ac As]
+20.2 +18.4 89 +24 +24 комфорт 1016.2 1002.2
15 17.08 СВ 3-4
{6}
10 км 10/8 600 м
[Cb calv Ac As]
+19.0 +18.7 98 +21 +21 комфорт 1016.5 1002.5 +20.3 3
18 17.08 СВ 3-4
{5}
10 км 10/8 600 м
[Sc Ac As]
+18.0 +17.8 99 +18 +18 тепло 1016.6 1002.5
21 17.08 СВ 3-4
{5}
1000 м слаб. ливневой дождь 10/8 300 м
[Cb cap Ac As]
+17.3 +17.1 99 +17 +17 тепло 1016.6 1002.5
00 18.08 СВ 3-4
{5}
4000 м дымка {ливн. осадки} 10/10 300 м
[St]
+17.4 +17.2 99 +17 +17 тепло 1016.1 1002.0
03 18.08 СВ 2-4
{5}
500 м туман {ливн. осадки} ?/? +16.9 +16.7 99 +17 +17 тепло 1015.7 1001.6 +16.9 0.9
06 18.08 СВ 4-5
{6}
10 км в посл. час ливневой дождь {туман} 9/6 300 м
[Cb cap Ac trans]
+18.7 +18.4 98 +20 +21 тепло 1015.2 1001.2
09 18.08 В 2-4
{7}
10 км слаб. ливневой дождь 9/8 600 м
[Cb cap Ac trans]
+21.8 +19.8 88 +27 +29 душно 1014.6 1000.7
12 18.08 В 2-4
{5}
20 км {ливн. осадки} 8/5 1000 м
[Sc Ac trans Ci fib]
+25.4 +21.8 80 +33 +35 очень
душно
1014.2 1000.5
15 18.08 ЮВ 3-5
{8}
20 км 9/8 600 м
[Cb calv Ac trans Ci fib]
+24.4 +16.6 62 +28 +28 душно 1014.4 1000.6 +27.3 0.4
18 18.08 Ю 2-4
{5}
10 км 8/3 1000 м
[Sc Ac trans Cs]
+21.3 +17.1 77 +25 +25 комфорт 1015.3 1001.4
21 18.08 Ю 3-5
{5}
10 км 8/0
[Ac trans]
+19.7 +16.4 81 +22 +22 комфорт 1015.8 1001.8
00 19.08 Ю 3-5
{6}
10 км 10/5 600 м
[Cb calv Ac As]
+18.5 +15.6 83 +19 +19 тепло 1016.8 1002.7
03 19.08 Ю 2-4
{6}
10 км {гроза, ливн. осадки} 10/8 600 м
[Cb calv Ac As]
+17.5 +17.3 99 +18 +18 тепло 1017.7 1003.6 +17.3 2
06 19.08 ЮВ 2-3
{4}
10 км {гроза, ливн. осадки} 9/8 600 м
[Cb calv Ac trans]
+18.8 +17.0 89 +21 +22 комфорт 1017.8 1003.7
09 19.08 ЮВ 3-5
{5}
10 км 9/8 1000 м
[Sc Ac trans Cs]
+23.2 +17.8 72 +29 +30 душно 1016.9 1003.1
12 19.08 Ю 3-5
{5}
20 км {ливн. осадки} 9/8 600 м
[Cb calv Ac trans]
+23.4 +17.6 70 +29 +30 душно 1016.5 1002.7
15 19.08 Ю 3-6
{6}
20 км 8/5 1000 м
[Cb calv Ac trans]
+23.1 +18.2 74 +29 +29 очень
душно
1016.6 1002.8 +23.9 2
18 19.08 Ю 1-2
{6}
10 км 8/5 1000 м
[Sc Ac trans]
+20.6 +18.9 90 +26 +26 душно 1017.1 1003.2
21 19.08 З 2-4
{5}
10 км 6/3 1000 м
[Sc diur, vesp Cs]
+19.0 +17.9 93 +21 +21 комфорт 1017.3 1003.3
00 20.08 З 3-5
{6}
10 км 8/8 1000 м
[Sc Ac trans]
+17.3 +16.1 93 +17 +17 тепло 1018.3 1004.2
03 20.08 З 2-4
{5}
4000 м дымка ясно +15.7 +14.7 94 +16 +16 по сезону 1018.8 1004.6 +15.5
06 20.08 З 1-2
{4}
10 км 10/8 300 м
[Frnb As trans]
+18.3 +16.6 90 +20 +21 тепло 1019.8 1005.7
09 20.08 СЗ 4-7
{7}
50 км 4/4 600 м
[Cu med, cong]
+22.5 +16.4 68 +27 +31 душно 1019.8 1005.9
12 20.08 С 3-4
{8}
50 км 4/4 600 м
[Cu med, cong]
+24.4 +15.7 58 +27 +31 жарко 1020.0 1006.2
15 20.08 С 1-2
{6}
50 км 3/3 1000 м
[Sc diur, vesp]
+23.0 +17.2 70 +28 +28 душно 1020.2 1006.4 +24.6
18 20.08 штиль 0
{4}
10 км ясно +18.6 +17.0 90 +19 +19 тепло 1021.0 1006.9
21 20.08 З 1-2
{2}
10 км ясно +15.9 +15.2 96 +17 +17 тепло 1021.9 1007.6
00 21.08 штиль 0
{2}
1000 м дымка ясно +13.8 +13.6 99 +13 +13 по сезону 1022.0 1007.6
03 21.08 штиль 0
{2}
4000 м дымка 4/0
[Ci fib]
+15.7 +14.7 94 +15 +16 по сезону 1022.6 1008.3 +13.4
06 21.08 З 2-3
{3}
20 км 3/0
[Ci]
+22.3 +17.5 74 +27 +34 душно 1023.1 1009.1
09 21.08 С 2-4
{4}
20 км 5/5 1000 м
[Cu med, cong]
+24.6 +17.2 63 +28 +34 душно 1022.2 1008.3
12 21.08 С 2-3
{5}
50 км 6/6 1000 м
[Cu med, cong]
+26.5 +16.9 56 +30 +33 душно 1021.9 1008.1
15 21.08 З 1-2
{5}
50 км 4/0
[Ac lent Ci fib]
+25.5 +17.0 59 +29 +30 душно 1021.3 1007.5 +26.7
18 21.08 Ю 1-1
{2}
10 км 3/0
[Ac trans]
+21.0 +18.8 87 +27 +27 душно 1021.9 1007.8
21 21.08 С 1-2
{5}
10 км 1/0
[Ac trans]
+19.5 +18.4 93 +23 +23 комфорт 1021.9 1007.8

 

Местоположение метеостанции Йошкар-Ола (Марий-Эл, Россия): широта 56.63 долгота 47.77 высота над уровнем моря 120 м.

В архиве по умолчанию представлена погода в Йошкар-Оле за последнюю неделю. Архивные данные за месяц целиком и за предыдущие месяцы, начиная с января 2011 года, Вы можете получить, выбрав интересующий диапазон дат из раскрывающегося списка и нажав кнопку "Ввод!".


*Определитесь, кто Вы:
робот инопланетянин человек

Внимание! Время в таблицах - всемирное. Для получения местного времени необходимо прибавить поправку, которая равна 3 ч.

Смотрите также архив погоды в соседних городах и на ближайших метеорологических станциях:

Погода в Санчурске (Кировская область, Россия) (48 км)
Погода в Чебоксарах (Чувашия, Россия) (67 км)
Погода в Новом Торьяле (Марий-Эл, Россия) (71 км)
Погода в Морках (Марий-Эл, Россия) (80 км)
Погода в Козьмодемьянске (Марий-Эл, Россия) (80 км)
Погода в Яранске (Кировская область, Россия) (83 км)
Погода в Вязовых (Татарстан, Россия) (101 км)
Погода в Канаше (Чувашия, Россия) (125 км)
Погода в Шахунье (Нижегородская область, Россия) (134 км)
Погода в Казани (Татарстан, Россия) (134 км)

Пояснения к столбцам:

Ветер - указаны скорость ветра в м/с - средняя за 10 мин, порывы в срок и между сроками (в фигурных скобках) и направление, откуда дует ветер: С - северный, СВ - северо-восточный, В - восточный, ЮВ - юго-восточный, Ю - южный, ЮЗ - юго-западный, З - западный, СЗ - северо-западный.
Видимость - горизонтальная дальность видимости в метрах или километрах. При видимости от 1 до 10 км при отсутствии осадков обычно наблюдается дымка, при ухудшении видимости до 1 км и менее - туман. В сухую погоду видимость может ухудшаться дымом, пылью или мглою.
Явления - указаны атмосферные явления, наблюдавшиеся в срок или в последний час перед сроком; фигурными скобками обозначены явления, наблюдавшиеся между сроками (за 1-3 часа до срока); квадратными скобками обозначены град или гололедные отложения с указанием их диаметра в мм.
Облачность - указаны через наклонную черту общая и нижняя облачность в баллах и высота нижней границы облаков в метрах; квадратными скобками обозначены формы облаков: Ci - перистые, Cs - перисто-слоистые, Cc - перисто-кучевые, Ac - высококучевые, As - высокослоистые, Sc - слоисто-кучевые, Ns - слоисто-дождевые, Cu - кучевые, Cb - кучево-дождевые. Подробнее классификацию облаков см. в Атласе облаков (PDF).
T - Температура воздуха - температура, измеренная на высоте 2 м над землей.
Td - Температура точки росы - температура, при понижении до которой содержащийся в воздухе водяной пар достигнет насыщения.
f - Относительная влажность воздуха - влажноcть воздуха, измеренная на высоте 2 м над землей.
Te - Эффективная температура - температура, которую ощущает одетый по сезону человек в тени. Характеристика душности погоды. При расчете учитывается влияние влажности воздуха и скорости ветра на теплоощущения человека.
Tes - Эффективная температура на солнце - температура, которую ощущает человек, с поправкой на солнечный нагрев. Характеристика знойности погоды. Зависит от высоты солнца над горизонтом, облачности и скорости ветра. Ночью, в пасмурную погоду, а также при ветре 12 м/с и более поправка равна нулю.
P - Атмосферное давление - приведенное к уровню моря атмосферное давление.
Po - Атмосферное давление - измеренное на уровне метеостанции атмосферное давление.
Tmin - Минимальная температура - минимум температуры воздуха на высоте 2 м над землей.
Tmax - Максимальная температура - максимум температуры воздуха на высоте 2 м над землей.
R - Количество осадков - Количество выпавших осадков за период времени, мм. При наведении курсора мыши на число - период времени, за который выпало указанное количество осадков.
R24 - Количество осадков - Количество выпавших осадков за 24 часа, мм.
S - Снежный покров - Высота снежного покрова, см. При наведении курсора мыши на число - состояние снежного покрова и степень покрытия местности в баллах.